Regional Weather Roundup
Issued by NWS

Home | Current Version | Previous Version | Text Only | Print | Product List | Glossary On
Versions: 1 2 3 4 5 6 7 8 9 10 11 12 13 14 15 16 17 18 19 20 21 22 23 24 25 26 27 28 29 30 31 32 33 34 35 36 37 38 39 40 41 42 43 44 45 46 47 48 49 50
249
ASUS43 KMPX 051901
RWRMN
WEATHER ROUNDUP FOR MINNESOTA
NATIONAL WEATHER SERVICE TWIN CITIES/CHANHASSEN MN
100 PM CST MON DEC 05 2016


NOTE: "FAIR" INDICATES FEW OR NO CLOUDS BELOW 12,000 FEET WITH NO
SIGNIFICANT WEATHER AND/OR OBSTRUCTIONS TO VISIBILITY. N/A MEANS
CURRENT SKY AND/OR WEATHER CONDITIONS ARE NOT AVAILABLE.

MNZ060>063-068>070-052000-
   Twin Cities Metro

CITY           SKY/WX    TMP DP  RH WIND       PRES   REMARKS
TWIN CITIES    LGT RAIN  37  32  82 SE18G28   29.69F
ST PAUL        CLOUDY    37  34  89 SE17      29.70F
CRYSTAL        LGT RAIN  39  30  70 SE15G24   29.65F
BLAINE         CLOUDY    39  36  87 SE12G17   29.66F
LAKEVILLE      CLOUDY    36  32  87 SE10      29.69F
EDEN PRAIRIE   LGT RAIN  39  32  76 SE15      29.65S
SOUTH ST PAUL  CLOUDY    37  33  85 SE10G16   29.70F
LAKE ELMO      CLOUDY    36  32  87 SE10      29.72F
$$
MNZ001>005-007-008-013>017-022>024-027-028-052000-
   Northwest Minnesota

CITY           SKY/WX    TMP DP  RH WIND       PRES   REMARKS
BEMIDJI        CLOUDY    29  27  90 E9        29.66F WCI  21
HALLOCK        CLOUDY    30  27  86 E12       29.67S WCI  21
ROSEAU         CLOUDY    30  25  80 E13       29.70F WCI  20
WARROAD        CLOUDY    30  27  86 E9        29.71F WCI  22
THIEF RVR FALL CLOUDY    30  27  88 E16G22    29.65F WCI  19
CROOKSTON      CLOUDY    30  28  93 E15       29.64F WCI  19
FOSSTON        CLOUDY    28  27  93 NE8       29.62F WCI  20
DETROIT LAKES  MOSUNNY   32  28  86 E9        29.58F WCI  24
MOORHEAD       CLOUDY    36  28  75 E10       29.56F
PARK RAPIDS    CLOUDY    31  25  78 E7        29.61F WCI  24
$$
MNZ006-009>011-018-025>026-052000-
   North Central Minnesota

CITY           SKY/WX    TMP DP  RH WIND       PRES   REMARKS
BAUDETTE       CLOUDY    30  25  81 E8        29.72F WCI  22
FLAG ISLAND    CLOUDY    30  25  80 E3        29.72S
INTL FALLS     CLOUDY    31  24  75 CALM      29.74S
WASKISH        CLOUDY    30  27  86 E12       29.70F WCI  21
BIG FORK       PTSUNNY   30  27  86 E6        29.72F WCI  24
LONGVILLE      SUNNY     34  27  75 E8        29.66F WCI  27
GRAND RAPIDS   MOSUNNY   35  28  75 E7        29.72F WCI  29
CRANE LAKE     CLOUDY    28  27  93 CALM      29.77F
COOK           CLOUDY    30  25  80 E3        29.75F
$$
MNZ012-019>021-037-052000-
   Northeast Minnesota

CITY           SKY/WX    TMP DP  RH WIND       PRES   REMARKS
DULUTH         MOSUNNY   32  28  85 SE7       29.75F WCI  26
ELY            CLOUDY    28  25  86 CALM      29.75S
HIBBING        MOSUNNY   29  26  89 E8        29.73F WCI  21
EVELETH        PTSUNNY   32  26  77 SE5       29.75F WCI  28
DULUTH HARBOR  MOSUNNY   37  30  75 E8        29.79F
TWO HARBORS    SUNNY     36  28  75 SE3       29.76S
SILVER BAY       N/A     36  28  75 S3        29.76S
GRAND MARAIS     N/A     35  29  78 CALM      29.80F
G MARAIS ARPRT CLOUDY    28  21  74 W5        29.75F WCI  23
$$
MNZ029>031-032-039>041-046>048-054>057-064-052000-
   West Central Minnesota

CITY           SKY/WX    TMP DP  RH WIND       PRES   REMARKS
FERGUS FALLS   CLOUDY    36  28  75 E13G18    29.57F
WHEATON        MOSUNNY   36  34  93 SE10      29.56R
MORRIS         MOSUNNY   36  32  87 SE15      29.53S
ALEXANDRIA     CLOUDY    34  32  92 E16       29.56F WCI  24
ELBOW LAKE     FAIR      35  32  88 SE15      29.54F WCI  25
WADENA         MOSUNNY   30  28  93 E9        29.59F WCI  22
GLENWOOD       CLOUDY    34  32  93 SE14      29.58S WCI  24
APPLETON       MOSUNNY   36  32  87 SE12      29.52F
BENSON         CLOUDY    36  32  87 SE13G20   29.54F
ORTONVILLE     CLOUDY    36  30  80 CALM      29.51F
MADISON        CLOUDY    39  37  93 SE13      29.50F
WILLMAR        FAIR      37  34  87 SE15      29.59R
$$
MNZ033>034-036-042>043-049>051-058-059-052000-
   Central Minnesota

CITY           SKY/WX    TMP DP  RH WIND       PRES   REMARKS
ST CLOUD       CLOUDY    35  31  85 E9        29.63F WCI  28
PAYNESVILLE    CLOUDY    36  35  98 SE9G17    29.61S
AITKIN         SUNNY     34  27  75 E9        29.67F WCI  26
PINE RIVER     SUNNY     30  27  86 E10       29.69F WCI  21
BRAINERD       CLOUDY    32  27  81 E12G21    29.65F WCI  23
STAPLES        MOSUNNY   30  28  93 E8        29.62F WCI  23
LONG PRAIRIE   PTSUNNY   34  30  86 NE12      29.59F WCI  25
LITTLE FALLS   CLOUDY    36  30  80 E10       29.63F
LITCHFIELD     MOSUNNY   37  34  87 SE8       29.61S
BUFFALO        CLOUDY    37  32  81 E8        29.64F
MAPLE LAKE     PTSUNNY   38  34  87 E7        29.63F
$$
MNZ037-044-045-052-053-052000-
   East Central Minnesota

CITY           SKY/WX    TMP DP  RH WIND       PRES   REMARKS
PRINCETON      CLOUDY    36  34  93 E9        29.66F
MORA           PTSUNNY   34  32  93 E9        29.69F WCI  26
CAMBRIDGE      CLOUDY    36  28  75 E8        29.65F
RUSH CITY      CLOUDY    34  30  86 E9        29.70F WCI  26
MOOSE LAKE     MOSUNNY   34  28  80 E3        29.71F
HINCKLEY       CLOUDY    34  34 100 E7        29.71F WCI  28
CLOQUET        CLOUDY    34  28  80 NE7       29.72F WCI  28
MCGREGOR       MOSUNNY   32  30  93 E9        29.71F WCI  24
$$
MNZ071>073-080-081-089-090-097-098-052000-
   Southwest Minnesota

CITY           SKY/WX    TMP DP  RH WIND       PRES   REMARKS
MONTEVIDEO     DRIZZLE   36  34  93 S8        29.54F
GRANITE FALLS  CLOUDY    39  34  82 SE14      29.57F
CANBY          PTSUNNY   39  34  81 SE9       29.50F
MARSHALL       CLOUDY    41  32  70 S13       29.52F
REDWOOD FALLS  CLOUDY    38  32  79 SE10      29.57F
OLIVIA         CLOUDY    36  32  87 SE9       29.57F
PIPESTONE      MOSUNNY   41  36  81 S18       29.48F
WINDOM         CLOUDY    45  34  65 S15G25    29.55F
WORTHINGTON    CLOUDY    42  33  70 S21       29.52F
JACKSON        PTSUNNY   43  32  65 S23       29.58F
TRACY          CLOUDY    41  34  76 S12G17    29.52F
SLAYTON        CLOUDY    38  33  82 S17       29.52F
$$
MNZ065>067-074>077-082>085-091>093-052000-
   South Central Minnesota

CITY           SKY/WX    TMP DP  RH WIND       PRES   REMARKS
MANKATO        MOSUNNY   38  32  79 SE23G31   29.63F
NEW ULM        CLOUDY    39  32  75 SE18      29.58F
ST JAMES       MOSUNNY   41  36  81 SE17      29.59F
FAIRMONT       PTSUNNY   43  35  73 S22       29.60F
GLENCOE        CLOUDY    40  35  82 SE16G22   29.60F
FARIBAULT      MOSUNNY   37  34  87 SE12G22   29.70S
OWATONNA       CLOUDY    37  30  75 SE18G28   29.70F
WASECA         CLOUDY    36  32  87 SE16      29.69F
ALBERT LEA     MOSUNNY   39  37  93 SE15G23   29.71S
$$
MNZ078>079-086>088-094>096-052000-
   Southeast Minnesota

CITY           SKY/WX    TMP DP  RH WIND       PRES   REMARKS
ROCHESTER      CLOUDY    34  32  92 S21G28    29.76F WCI  22
RED WING       CLOUDY    37  34  87 SE9       29.73F
STANTON        CLOUDY    39  32  77 S13G20    29.70S
DODGE CENTER   CLOUDY    36  30  80 S18G26    29.73S
WINONA         CLOUDY    37  32  81 SE6       29.81F
AUSTIN         CLOUDY    34  30  86 S13G18    29.75S WCI  25
PRESTON        CLOUDY    33  31  93 S16       29.79F WCI  22
$$
ABBREVIATIONS USED IN REMARKS
   TC - TEMPERATURES IN CELSIUS
  WCI - WIND CHILL INDEX
   HX - HEAT INDEX
  VSB - VISIBILITY
$$




USA.gov is the U.S. government's official web portal to all federal, state and local government web resources and services.